Location: Brantley
(31.5822°N, 86.2569°W)
Time: 17:09:01
(UTC+00:00)

Injun/Solrad 3 - Pass Details

Date: 17 February 2026
Orbit: 871 x 985 km, 66.8° (Epoch: 11 March)

Event Time Altitude Azimuth Distance (km) Brightness Sun altitude
Rises 17:43:02 0° 238° (WSW) 3,447 11.1 46.5°
Reaches altitude 10° 17:45:59 10° 252° (WSW) 2,514 10.4 46.5°
Maximum altitude 17:50:35 24° 305° (NW) 1,741 9.3 46.6°
Drops below altitude 10° 17:55:14 10° 358° (N) 2,550 9.9 46.6°
Sets 17:58:17 0° 12° (NNE) 3,508 10.5 46.6°
